Hourly Data Report for September 23, 2017

All times are specified in Local Standard Time (LST). Add 1 hour to adjust for Daylight Saving Time where and when it is observed.

ALGONQUIN PARK EAST GATE
ONTARIO

45°32'00.000" N
78°16'00.000" W
397.00 m
6080192
71581
TNK

Download Data

Hourly Data (September 2017)
Hourly Data Report for September 23, 2017
Temp Definition
°C
Dew Point Temp Definition
°C
Rel Hum Definition
%
Wind Dir Definition
10's deg

Wind Spd Definition
km/h
Visibility Definition
km
Stn Press Definition
kPa
Hmdx Definition


Wind Chill Definition


Weather Definition


TIME
00:00 15.7 14.2 91 32 1   97.10     LegendNANA
01:00 15.3 13.9 91   0   97.06     LegendNANA
02:00 15.7 14.3 91 9 1   97.11     LegendNANA
03:00 14.8 13.4 91   0   97.10     LegendNANA
04:00 14.2 12.9 92   0   97.12     LegendNANA
05:00 13.5 12.2 92   0   97.17     LegendNANA
06:00 13.0 11.8 92   0   97.21     LegendNANA
07:00 13.7 12.5 92   0   97.24     LegendNANA
08:00 17.6 15.5 87   0   97.24     LegendNANA
09:00 22.2 17.7 76 23 2   97.24 28   LegendNANA
10:00 24.3 17.0 64 26 4   97.27 30   LegendNANA
11:00 26.2 17.0 57 27 6   97.28 31   LegendNANA
12:00 27.9 15.6 47 31 5   97.25 32   LegendNANA
13:00 29.2 15.1 42 30 6   97.21 33   LegendNANA
14:00 29.0 13.9 40 31 5   97.19 32   LegendNANA
15:00 29.4 15.7 44 27 5   97.12 34   LegendNANA
16:00 28.2 15.8 47 26 5   97.10 33   LegendNANA
17:00 26.3 17.5 58 26 3   97.11 32   LegendNANA
18:00 23.0 18.0 73   0   97.12 29   LegendNANA
19:00 20.8 17.4 81   0   97.13 26   LegendNANA
20:00 19.7 17.4 87 0 1   97.16     LegendNANA
21:00 19.3 17.2 88 26 2   97.16     LegendNANA
22:00 19.2 17.0 88 25 1   97.19     LegendNANA
23:00 18.3 16.5 89 10 2   97.24     LegendNANA

Notes on Data Quality.

Legend

  • E = Estimated
  • M = Missing
  • NA = Not Available
  • ‡ = Partner data that is not subject to review by the National Climate Archives
Date modified: